DECAYED
Showing default

FLOCK 4Q 24, 58314 (Decayed)

Orbit data source: Space-Track

FLOCK 4Q 24, 58314 was a payload satellite owned by Planet (US) in LEO that was launched on Sat, 11 Nov 2023 UTC via an FALCON 9 launch vehicle from the Air Force Western Test Range (AFWTR). Payload-class satellites include a variety of spacecraft equipped with specific instruments for various scientific and technological missions. These include communications satellites like Starlink; space stations such as the ISS; scientific satellites like the Hubble; Earth observation satellites from companies like Planet Labs, Umbra, and HawkEye 360; GPS; miniature CubeSats for education and research; and military/defense satellites.

Not visible in the next 10 days
Identifier
58314, 2023-174BL
Orbit
Decayed
Country
Flag of USUS
Related business
Manufacturer
Planet
Mission
Decayed Commercial Imaging
Bus & Motor
CUBESAT 3U, Unknown motor
Mass
5.7 kg wet, 5.7 kg dry
Launch date (UTC)
2023-11-11 (2 years ago)
Launch vehicle
FALCON 9
Launch site
Air Force Western Test Range (AFWTR)
Object type
Payload
Rocket body
Debris
Shape & HBR
Box + 2 Pan, 1.0 m
Radar Cross Section
0.072 m², Medium (>0.1 m² and < 1m²)

Expand to show TLE details & history
Last TLE update: 8 months ago

TLE from 8 months ago
0 FLOCK 4Q 24
1 58314U 23174BL  25031.43405299  .12284974  25241-5  10054-2 0  9993
2 58314  97.3941 115.5814 0011895 285.6115  74.3872 16.39619024 68829
Epoch: 2025-01-31T10:25Z
TLE epoch observation values (Epoch: 2025-01-31T10:25:02.178Z)
Latitude
0.00007°
Longitude
-171.5745°
Altitude
167.98 km
Speed
7.807 km/s
True Right ascension
07h 42m 19s
True Declination
0° 00' 00"
Sunlit
Object was in full shadow at epoch
Visualization orbit readout
Latitude
Unknown
Longitude
Unknown
Altitude
Unknown
Speed
Unknown
Apparent Right ascension
Unknown
Apparent Declination
Unknown
Sunlit
N/A
Visualization observer readout
Local Sidereal Time
21:58:29
Azimuth
Unknown
Elevation
Unknown
Doppler factor
Unknown
Orbital elements
Apogee altitude
171.405 km
Perigee altitude
155.843 km
Semi-major axis
6,541.761 km
Eccentricity
0.00119
Inclination
97.3941°
RAAN
115.5814°
Arg. of periapsis
285.6115°
True anomaly
74.51853°
Mean anomaly
74.3872°
Eccentric anomaly
74.45286°
Mean motion
4.10205 °/min
Orbital period
87.76 mins
BSTAR
0.0010054
Loading maneuver chart data...
Computing Atmospheric mass density...

Documentation

Showing up to 5 results
|